Content
SEND FEEDBACK

Daily
Averages
Monthly
Summary
United States of America

LAKE MILLS, IOWA


Home > North America > United States > Iowa
Elevation: 390 meters     Latitude: 43 25N     Longitude: 093 32W

WEATHER
 
SELECT A DAY
Number of Records: 109,551;   Date Range: 9/1/09 - 4/23/14
 
SHARE

PRINT THIS DATA

[ ← Previous Day ]
WEATHER ALMANAC - 13 FEBRUARY, 2013
[ Next Day → ]
[ °F ]   °C
Weather ElementAverageHighLow
Temperature0.2 °C5 °C (2:15 pm)-5 °C (4:15 am)
Dewpoint-2.4 °C0 °C (2:15 pm)-6 °C (4:15 am)
Humidity83.5 %93 % (1:35 am)70 % (1:55 pm)
Barometer1005.8 hPa1009.8 hPa (12:35 am)1002 hPa (9:15 pm)
Wind Speed9.3 km/h20.4 km/h (2:55 pm)
Wind Gust29.6 km/h (10:35 pm)
Weather ElementAverage
Visibility16.1 km
Wind DirectionSSW (194.9 °)

Weather ElementTotal
Precipitation---
Heating Degree Days18.3 (Base 18.3)
Averaged from 70 records on 13 February, 2013
WEATHER CONDITIONS BREAKOUT
WIND DIRECTION BREAKOUT
WEATHER BY HOUR - 13 FEBRUARY, 2013
[ °F ]   °C
Local TimeTemperatureDewpointHumidityBarometerVisibilityWind DirectionWind SpeedGust SpeedPrecipitationEventsConditions
12:35 AM-2 °C-5 °C80 %1009.8 hPa16.1 kmWest (280°)5.6 km/hClear
12:55 AM-2 °C-5 °C80 %1009.8 hPa16.1 kmCalmClear
1:15 AM-2 °C-4 °C86 %1009.5 hPa16.1 kmWest (270°)7.4 km/hClear
1:35 AM-3 °C-4 °C93 %1009.5 hPa16.1 kmWest (270°)5.6 km/hClear
1:55 AM-3 °C-4 °C93 %1009.1 hPa16.1 kmCalmClear
2:15 AM-3 °C-5 °C86 %1009.1 hPa16.1 kmWest (270°)5.6 km/hClear
2:35 AM-3 °C-5 °C86 %1009.1 hPa16.1 kmWest (260°)5.6 km/hClear
2:55 AM-3 °C-5 °C86 %1009.1 hPa16.1 kmCalmClear
3:15 AM-3 °C-5 °C86 %1008.8 hPa16.1 kmWest (270°)5.6 km/hClear
3:35 AM-3 °C-5 °C86 %1008.5 hPa16.1 kmWest (270°)5.6 km/hClear
3:55 AM-4 °C-5 °C93 %1008.5 hPa16.1 kmWest (270°)5.6 km/hClear
4:15 AM-5 °C-6 °C93 %1008.5 hPa16.1 kmCalmClear
4:35 AM-4 °C-5 °C93 %1008.1 hPa16.1 kmCalmClear
4:55 AM-5 °C-6 °C93 %1008.5 hPa16.1 kmCalmClear
5:15 AM-5 °C-6 °C93 %1008.1 hPa16.1 kmCalmClear
5:35 AM-5 °C-6 °C93 %1008.5 hPa16.1 kmWest (280°)5.6 km/hScattered Clouds
5:55 AM-4 °C-5 °C93 %1008.1 hPa16.1 kmCalmMostly Cloudy
6:15 AM-3 °C-5 °C86 %1008.1 hPa16.1 kmCalmOvercast
6:35 AM-4 °C-6 °C86 %1007.5 hPa16.1 kmCalmOvercast
6:55 AM-4 °C-6 °C86 %1007.8 hPa16.1 kmCalmScattered Clouds
7:15 AM-5 °C-6 °C93 %1007.8 hPa16.1 kmWSW (250°)5.6 km/hClear
7:35 AM-5 °C-6 °C93 %1007.8 hPa16.1 kmCalmClear
7:55 AM-4 °C-5 °C93 %1008.1 hPa16.1 kmWest (270°)7.4 km/hClear
8:15 AM-3 °C-5 °C86 %1007.8 hPa16.1 kmWSW (250°)5.6 km/hClear
8:35 AM-3 °C-5 °C86 %1007.8 hPa16.1 kmWest (260°)5.6 km/hClear
8:55 AM-2 °C-4 °C86 %1007.8 hPa16.1 kmWSW (250°)11.1 km/hMostly Cloudy
9:15 AM-2 °C-4 °C86 %1007.8 hPa16.1 kmWest (260°)5.6 km/hScattered Clouds
9:35 AM-2 °C-4 °C86 %1007.5 hPa16.1 kmWSW (240°)9.3 km/hScattered Clouds
9:55 AM-1 °C-4 °C80 %1007.5 hPa16.1 kmWSW (250°)9.3 km/hClear
10:15 AM-1 °C-3 °C86 %1007.1 hPa16.1 kmSW (230°)11.1 km/hClear
10:55 AM0 °C-3 °C80 %1007.1 hPa16.1 kmSW (230°)16.7 km/hMostly Cloudy
11:15 AM1 °C-2 °C81 %1006.8 hPa16.1 kmWSW (240°)14.8 km/hClear
11:35 AM0 °C-2 °C87 %1007.1 hPa16.1 kmWSW (250°)18.5 km/hClear
11:55 AM1 °C-2 °C81 %1006.8 hPa16.1 kmSW (230°)16.7 km/hScattered Clouds
12:15 PM1 °C-1 °C87 %1006.8 hPa16.1 kmWSW (240°)13 km/hMostly Cloudy
12:35 PM2 °C-1 °C81 %1006.4 hPa16.1 kmWSW (240°)14.8 km/hOvercast
12:55 PM2 °C-1 °C81 %1006.1 hPa16.1 kmSW (230°)13 km/hMostly Cloudy
1:15 PM3 °C-1 °C75 %1005.8 hPa16.1 kmSW (220°)14.8 km/hClear
1:35 PM3 °C-1 °C75 %1005.4 hPa16.1 kmSW (220°)14.8 km/hScattered Clouds
1:55 PM4 °C-1 °C70 %1005.1 hPa16.1 kmSW (230°)16.7 km/hClear
2:15 PM5 °C0 °C70 %1005.1 hPa16.1 kmSW (220°)18.5 km/hClear
2:35 PM5 °C0 °C70 %1004.7 hPa16.1 kmSW (230°)14.8 km/hClear
2:55 PM5 °C0 °C70 %1004.4 hPa16.1 kmSW (220°)20.4 km/hClear
3:15 PM5 °C0 °C70 %1004.4 hPa16.1 kmSW (230°)18.5 km/hClear
3:35 PM5 °C0 °C70 %1004.4 hPa16.1 kmSW (230°)20.4 km/hClear
3:55 PM5 °C0 °C70 %1004.1 hPa16.1 kmSW (220°)13 km/hClear
4:15 PM5 °C0 °C70 %1004.1 hPa16.1 kmSW (220°)13 km/hScattered Clouds
4:35 PM4 °C0 °C75 %1004.1 hPa16.1 kmSW (220°)9.3 km/hScattered Clouds
4:55 PM4 °C0 °C75 %1003.7 hPa16.1 kmSSW (200°)9.3 km/hScattered Clouds
5:15 PM3 °C0 °C81 %1003.7 hPa16.1 kmSouth (190°)11.1 km/hMostly Cloudy
5:35 PM3 °C0 °C81 %1003.4 hPa16.1 kmSouth (190°)11.1 km/hOvercast
5:55 PM3 °C0 °C81 %1003 hPa16.1 kmSouth (190°)9.3 km/hOvercast
6:15 PM2 °C0 °C87 %1003 hPa16.1 kmSSW (200°)7.4 km/hOvercast
6:35 PM3 °C0 °C81 %1003 hPa16.1 kmSW (220°)13 km/hOvercast
6:55 PM3 °C0 °C81 %1003 hPa16.1 kmSW (230°)11.1 km/hOvercast
7:15 PM4 °C0 °C75 %1003 hPa16.1 kmWest (260°)16.7 km/h25.9 km/hDrizzle
7:35 PM3 °C0 °C81 %1003 hPa16.1 kmWest (280°)14.8 km/hRainLight Rain
7:55 PM3 °C0 °C81 %1002.7 hPa16.1 kmCalmOvercast
8:15 PM2 °C0 °C87 %1002.4 hPa16.1 kmCalmOvercast
8:35 PM2 °C0 °C87 %1002.4 hPa16.1 kmWSW (240°)5.6 km/hOvercast
8:55 PM3 °C0 °C81 %1002.4 hPa16.1 kmSW (230°)9.3 km/hOvercast
9:15 PM2 °C0 °C87 %1002 hPa16.1 kmWSW (240°)11.1 km/hOvercast
9:35 PM2 °C0 °C87 %1002 hPa16.1 kmWSW (250°)11.1 km/hOvercast
9:55 PM3 °C0 °C81 %1002 hPa16.1 kmWest (270°)13 km/hOvercast
10:15 PM2 °C0 °C87 %1002 hPa16.1 kmWest (270°)14.8 km/hOvercast
10:35 PM2 °C-1 °C81 %1002.4 hPa16.1 kmWest (280°)20.4 km/h29.6 km/hOvercast
10:55 PM1 °C-1 °C87 %1002.4 hPa16.1 kmWest (270°)20.4 km/hMostly Cloudy
11:15 PM1 °C-1 °C87 %1002.4 hPa16.1 kmWest (270°)16.7 km/hScattered Clouds
11:35 PM1 °C0 °C93 %1002.4 hPa16.1 kmWest (270°)14.8 km/hOvercast
11:55 PM1 °C-1 °C87 %1002.4 hPa16.1 kmWest (270°)11.1 km/hOvercast
Hourly data recorded from KFXY, located 21.9 kilometers away from Lake Mills, Iowa







STORIES FROM OUR PARTNERS